Time,TemperatureF,DewpointF,PressureIn,WindDirection,WindDirectionDegrees,WindSpeedMPH,WindSpeedGustMPH,Humidity,HourlyPrecipIn,Conditions,Clouds,dailyrainin,SoftwareType,DateUTC
2013-01-27 00:01:00,28.0,18.0,-100.00,ESE,105,5.0,8.0,66,-99.99,,,-99.99,,2013-01-27 06:01:00,
2013-01-27 00:11:00,28.0,18.0,-100.00,East,100,5.0,9.0,67,-99.99,,,-99.99,,2013-01-27 06:11:00,
2013-01-27 00:21:00,27.0,18.0,-100.00,East,95,6.0,9.0,67,-99.99,,,-99.99,,2013-01-27 06:21:00,
2013-01-27 00:32:00,27.0,18.0,-100.00,East,90,5.0,9.0,68,-99.99,,,-99.99,,2013-01-27 06:32:00,
2013-01-27 00:42:00,27.0,18.0,-100.00,East,90,5.0,9.0,68,-99.99,,,-99.99,,2013-01-27 06:42:00,
2013-01-27 00:52:00,27.0,18.0,-100.00,East,80,5.0,8.0,69,-99.99,,,-99.99,,2013-01-27 06:52:00,
2013-01-27 01:01:00,27.0,18.0,-100.00,East,80,5.0,8.0,69,-99.99,,,-99.99,,2013-01-27 07:01:00,
2013-01-27 01:14:00,26.0,18.0,-100.00,ENE,75,6.0,9.0,70,-99.99,,,-99.99,,2013-01-27 07:14:00,
2013-01-27 01:21:00,26.0,18.0,-100.00,ENE,75,6.0,9.0,71,-99.99,,,-99.99,,2013-01-27 07:21:00,
2013-01-27 01:31:00,26.0,18.0,-100.00,East,85,4.0,9.0,72,-99.99,,,-99.99,,2013-01-27 07:31:00,
2013-01-27 01:41:00,26.0,18.0,-100.00,East,85,4.0,9.0,72,-99.99,,,-99.99,,2013-01-27 07:41:00,
2013-01-27 01:52:00,26.0,18.0,-100.00,East,80,6.0,11.0,72,-99.99,,,-99.99,,2013-01-27 07:52:00,
2013-01-27 02:01:00,26.0,18.0,-100.00,East,80,6.0,11.0,72,-99.99,,,-99.99,,2013-01-27 08:01:00,
2013-01-27 02:11:00,26.0,18.0,-100.00,ENE,70,9.0,11.0,73,-99.99,,,-99.99,,2013-01-27 08:11:00,
2013-01-27 02:22:00,26.0,19.0,-100.00,ENE,75,8.0,11.0,74,-99.99,,,-99.99,,2013-01-27 08:22:00,
2013-01-27 02:32:00,26.0,19.0,-100.00,ENE,75,8.0,11.0,74,-99.99,,,-99.99,,2013-01-27 08:32:00,
2013-01-27 02:42:00,27.0,19.0,-100.00,East,85,7.0,11.0,74,-99.99,,,-99.99,,2013-01-27 08:42:00,
2013-01-27 02:52:00,27.0,19.0,-100.00,ESE,110,7.0,11.0,73,-99.99,,,-99.99,,2013-01-27 08:52:00,
2013-01-27 03:02:00,27.0,19.0,-100.00,ESE,110,7.0,11.0,73,-99.99,,,-99.99,,2013-01-27 09:02:00,
2013-01-27 03:11:00,26.0,19.0,-100.00,East,85,7.0,11.0,74,-99.99,,,-99.99,,2013-01-27 09:11:00,
2013-01-27 03:21:00,26.0,19.0,-100.00,East,100,6.0,11.0,74,-99.99,,,-99.99,,2013-01-27 09:21:00,
2013-01-27 03:32:00,26.0,19.0,-100.00,East,100,6.0,11.0,74,-99.99,,,-99.99,,2013-01-27 09:32:00,
2013-01-27 03:41:00,27.0,20.0,-100.00,East,95,8.0,13.0,75,-99.99,,,-99.99,,2013-01-27 09:41:00,
2013-01-27 03:52:00,27.0,20.0,-100.00,East,90,10.0,13.0,75,-99.99,,,-99.99,,2013-01-27 09:52:00,
2013-01-27 04:01:00,27.0,20.0,-100.00,East,90,10.0,13.0,75,-99.99,,,-99.99,,2013-01-27 10:01:00,
2013-01-27 04:11:00,27.0,20.0,-100.00,East,100,6.0,11.0,75,-99.99,,,-99.99,,2013-01-27 10:11:00,
2013-01-27 04:21:00,27.0,20.0,-100.00,ESE,110,8.0,12.0,75,-99.99,,,-99.99,,2013-01-27 10:21:00,
2013-01-27 04:31:00,27.0,20.0,-100.00,ESE,110,8.0,12.0,75,-99.99,,,-99.99,,2013-01-27 10:31:00,
2013-01-27 04:42:00,27.0,20.0,-100.00,ESE,110,8.0,11.0,75,-99.99,,,-99.99,,2013-01-27 10:42:00,
2013-01-27 04:52:00,28.0,21.0,-100.00,SE,125,5.0,11.0,75,-99.99,,,-99.99,,2013-01-27 10:52:00,
2013-01-27 05:01:00,28.0,21.0,-100.00,SE,125,5.0,11.0,75,-99.99,,,-99.99,,2013-01-27 11:01:00,
2013-01-27 05:11:00,28.0,21.0,-100.00,SE,130,8.0,13.0,75,-99.99,,,-99.99,,2013-01-27 11:11:00,
2013-01-27 05:21:00,28.0,21.0,-100.00,SE,125,6.0,14.0,75,-99.99,,,-99.99,,2013-01-27 11:21:00,
2013-01-27 05:32:00,28.0,21.0,-100.00,SE,125,6.0,14.0,75,-99.99,,,-99.99,,2013-01-27 11:32:00,
2013-01-27 05:42:00,28.0,22.0,-100.00,SE,130,6.0,14.0,75,-99.99,,,-99.99,,2013-01-27 11:42:00,
2013-01-27 05:52:00,29.0,22.0,-100.00,ESE,110,9.0,12.0,75,-99.99,,,-99.99,,2013-01-27 11:52:00,
2013-01-27 06:02:00,29.0,22.0,-100.00,ESE,110,9.0,12.0,75,-99.99,,,-99.99,,2013-01-27 12:02:00,
2013-01-27 06:12:00,29.0,22.0,-100.00,SE,135,7.0,14.0,75,-99.99,,,-99.99,,2013-01-27 12:12:00,
2013-01-27 06:21:00,29.0,22.0,-100.00,SE,130,3.0,9.0,75,-99.99,,,-99.99,,2013-01-27 12:21:00,
2013-01-27 06:32:00,29.0,23.0,-100.00,ESE,115,4.0,9.0,75,-99.99,,,-99.99,,2013-01-27 12:32:00,
2013-01-27 06:42:00,29.0,23.0,-100.00,ESE,115,4.0,9.0,75,-99.99,,,-99.99,,2013-01-27 12:42:00,
2013-01-27 06:52:00,30.0,22.0,-100.00,ESE,120,6.0,8.0,74,-99.99,,,-99.99,,2013-01-27 12:52:00,
2013-01-27 07:02:00,30.0,22.0,-100.00,ESE,120,6.0,8.0,74,-99.99,,,-99.99,,2013-01-27 13:02:00,
2013-01-27 07:11:00,30.0,22.0,-100.00,ESE,120,6.0,8.0,74,-99.99,,,-99.99,,2013-01-27 13:11:00,
2013-01-27 07:22:00,30.0,23.0,-100.00,ESE,120,6.0,14.0,74,-99.99,,,-99.99,,2013-01-27 13:22:00,
2013-01-27 07:32:00,30.0,23.0,-100.00,ESE,120,6.0,14.0,74,-99.99,,,-99.99,,2013-01-27 13:32:00,
2013-01-27 07:42:00,31.0,24.0,-100.00,SE,130,6.0,11.0,74,-99.99,,,-99.99,,2013-01-27 13:42:00,
2013-01-27 07:52:00,31.0,24.0,-100.00,SE,140,4.0,9.0,75,-99.99,,,-99.99,,2013-01-27 13:52:00,
2013-01-27 08:02:00,31.0,24.0,-100.00,SE,140,4.0,9.0,75,-99.99,,,-99.99,,2013-01-27 14:02:00,
2013-01-27 08:12:00,31.0,25.0,-100.00,SE,130,5.0,9.0,77,-99.99,,,-99.99,,2013-01-27 14:12:00,
2013-01-27 08:22:00,31.0,26.0,-100.00,SSE,160,2.0,4.0,80,-99.99,,,-99.99,,2013-01-27 14:22:00,
2013-01-27 08:32:00,31.0,26.0,-100.00,SSE,160,2.0,4.0,80,-99.99,,,-99.99,,2013-01-27 14:32:00,
2013-01-27 08:42:00,31.0,26.0,-100.00,SSE,160,2.0,4.0,80,-99.99,,,-99.99,,2013-01-27 14:42:00,